Regional Weather Roundup
Issued by NWS Charleston, SC

Current Version | Previous Version | Graphics & Text | Print | Product List | Glossary On
Versions: 1 2 3 4 5 6 7 8 9 10 11 12 13 14 15 16 17 18 19 20 21 22 23 24 25 26 27 28 29 30 31 32 33 34 35 36 37 38 39 40 41 42 43 44 45 46 47 48 49 50
000
ASUS42 KCHS 161325
RWRCHS

REGIONAL WEATHER ROUNDUP
NATIONAL WEATHER SERVICE CHARLESTON SC
900 AM EDT WED APR 16 2014

NOTE: "FAIR" INDICATES FEW OR NO CLOUDS BELOW 12,000 FEET WITH NO
SIGNIFICANT WEATHER AND/OR OBSTRUCTIONS TO VISIBILITY.

NOT ALL STATIONS ARE QUALITY CONTROLLED BY THE NATIONAL
WEATHER SERVICE. USE DATA WITH CAUTION...ESPECIALLY
DEWPOINT OBSERVATIONS.

SCZ027-030-031-034>040-042>050-161400-
...SOUTH CAROLINA...

CITY           SKY/WX    TMP DP  RH WIND       PRES   REMARKS
N CHARLESTON   MOSUNNY   45  28  51 NE18G31   30.28R
WATERFRONT PRK   N/A     46 N/A N/A N29         N/A
FORT JOHNSON     N/A     43  34  70 N14G22    30.31R
MOUNT PLEASANT CLOUDY   N/A N/A N/A N13G21    30.27R
JOHNS ISLAND   CLOUDY    46  34  61 NE13      30.27R
PINOPOLIS        N/A     45  32  61 NE20      30.21R
MONCKS CORNER  FAIR      43  32  65 NE8G23    30.29R
SUMMERVILLE    FAIR      45  32  61 N15G29    30.29R
BEAUFORT MCAS  NOT AVBL
BEAUFORT ARPT  FAIR      46  36  66 NE23G30   30.27R
HILTON HEAD IS SUNNY     45  34  65 N12G21    30.25R
GEORGETOWN     NOT AVBL
WALTERBORO     SUNNY     45  32  61 NE14G21   30.29S
ORANGEBURG     SUNNY     42  24  49 NE13      30.31R
BARNWELL       FAIR      45  28  53 NE18      30.31R
AIKEN          FAIR      43  30  61 NE14      30.33R
MANNING        FAIR      45  18  33 N16       30.31R
KINGSTREE      NOT AVBL
COLUMBIA       SUNNY     43  24  47 NE13      30.32R
SUMTER         SUNNY     40  24  52 NE21G29   30.31R WCI  31
FLORENCE       SUNNY     41  24  51 NE17G26   30.32R
MYRTLE BEACH   MOSUNNY   43  30  61 N16G22    30.27R
N MYRTLE BEACH MOSUNNY   44  32  62 N12G22    30.27R

$$

GAZ063-065-086>088-099>101-113>116-118-119-134-136>141-150-161400-
...GEORGIA...

CITY           SKY/WX    TMP DP  RH WIND       PRES   REMARKS
SAVANNAH ARPT  MOSUNNY   46  31  55 NE16G26   30.26R
HUNTER AAF     SUNNY     46  32  58 NE9G18    30.23R
FORT STEWART   SUNNY     45  34  64 NE13G23   30.24R
STATESBORO     NOT AVBL
SYLVANIA       SUNNY     46  29  52 E13G23    30.29R
CLAXTON        FAIR      46  32  57 E20       30.28R
THOMSON        SUNNY     42  30  63 NE12      30.35R
AUGUSTA-BUSH   SUNNY     43  26  51 NE12G22   30.31R
AUGUSTA-DANIEL SUNNY     43  25  49 NE17G25   30.30R
SWAINSBORO     FAIR      43  30  61 E10G23    30.28R
VIDALIA        SUNNY     45  32  61 NE17G26   30.27R
ALMA           SUNNY     45  32  60 NE10G17   30.21S
WAYCROSS       NOT AVBL
JESUP          FAIR      45  36  70 NE14G22   30.24R
BRUNSWICK      MOSUNNY   50  41  71 NE13G24   30.23R
SAINT SIMONS   LGT RAIN  53  39  59 NE17G30   30.20R

$$

SCZ027-028-034-036>038-045-046-048>050-GAZ119-141-161400-
...LAKE AND SUPPLEMENTAL COASTAL OBSERVATIONS...

STATION/POSITION TIME  TEMP    WIND        PRES    WAVE   SWELL
                       AIR SEA DIR/SP/G            HT/PER HT/PER/DIR
                 (UTC) (F)     (DEG/KT/KT) (MB)    (FT/S) (FT/S/D)
UPR LAKE MARION  NOT AVBL
WINYAH BAY       1300   43     360/ 10     1024.0S
LAKE MURRAY      1300   41      20/  4/  9 1026.4R
ACE BASIN NERRS  1300   44      20/  7     1024.0S
FORT PULASKI     1300   46 60   30/ 21/ 27 1024.5R
SAPELO ISLAND    1300   50      30/ 17     1022.0S

$$

ANZ086-088-AMZ330-350-352-354-374-454-470-161400-
...C-MAN AND BUOY OBSERVATIONS...

STATION/POSITION TIME  TEMP    WIND        PRES    WAVE   SWELL
                       AIR SEA DIR/SP/G            HT/PER HT/PER/DIR
                 (UTC) (F)     (DEG/KT/KT) (MB)    (FT/S) (FT/S/D)
FOLLY BEACH CMAN 1300   44      10/ 21/ 25 1024.9R
BUOY 41004       NOT AVBL
BUOY 41008       1300   51 63   30/ 25/ 29 1021.8R   8/ 6
5E ST. MARYS GA  1300      64                N/A     6/ 6
FRYING PAN BUOY  1300   46 65   30/ 29/ 37 1022.6R  10/ 8
BUOY 41025       NOT AVBL
CAPE LOOKOUT NC  1300   42     360/ 22/ 27 1024.4R
BUOY 41002       NOT AVBL
BUOY 41010       1300   72 76   20/ 19/ 23 1016.5R   7/ 7   3/280/13
BUOY 41012       NOT AVBL
ST AUGUSTINE FL  1300   51     320/ 10/ 13 1020.8R


$$



USA.gov is the U.S. government's official web portal to all federal, state and local government web resources and services.